Погода Крестцы

Погода Крестцы : погода сейчас, прогноз погоды и архив. Всё, что Вы хотите узнать о погоде Крестцы!

Поиск расширенной информации на нашем сайте:

Другие новости

Новости СМИ2

Главная страница сайта

Новости сайта

03.07.2017

Напоминаем, что на нашем специализированном сайте Метеоцентр.Азия вы можете получить высокодетализированные автоматические прогнозы погоды по пунктам России, СНГ и мира в авиационном формате (включающие направление и скорость ветра, видимость, явления погоды, количество и форму облачности, нижнюю и верхнюю границу облачности).


Погода Крестцы - сегодня

Время (UTC), дата Ветер
(°,м/с) 
Видим.   Явления Облачность Т
(°С)
Тd
(°С)
f(%) Тe
(°С)
Pmin
(гПа)
dP
(гПа)
Po
(мм)
O2
(г/м3)
Тmin Tmax R s Состояние
почвы
15 14.10.17 280 (З) 20000 м    10/10 1170 м 
[Sc]
+6.5 +2.9 78 +7  1011.3  0.2  753  296           
18 14.10.17 240 (ЮЗ) 20000 м    9/9 1080 м 
[Sc]
+4.8 +3.1 89 +6  1010.3  -1.1  752  297    +8       
21 14.10.17 110 (В) 20000 м    10/10 1080 м 
[Sc]
+3.9 +3.3 96 +5  1008.6  -1.7  751  298           
00 15.10.17 150 (ЮВ) 20000 м    9/0 средняя 
[Ac und]
+4.5 +3.4 93 +5  1005.4  -3.1  748  296           
03 15.10.17 190 (Ю) 4000 м  слаб. морось  10/10 270 м 
[Frnb]
+4.9 +4.2 95 +6  1001.7  -3.6  746  294  +3.4    0.0     
06 15.10.17 280 (З) 4000 м  слаб. дождь{морось}  10/10 300 м 
[Frnb|Ns]
+6.3 +5.8 97 +6  999.5  -2.2  744  292  +3.4       
09 15.10.17 340 (С) 4{13}  20000 м  {дождь}  10/10 540 м кучево-дожд. 
[Cb calv]
+5.8 +4.5 91 +4  1004.4  4.9  748  294           
12 15.10.17 350 (С) 3{10}  20000 м  {ливн. осадки, дождь}  10/10 600 м кучево-дожд. 
[Cb calv]
+5.6 +3.5 86 +5  1009.2  4.7  751  296           
15 15.10.17 310 (СЗ) 20000 м    9/9 700 м кучево-дожд. 
[Cb calv]
+6.2 +3.8 85 +5  1011.4  2.2  753  296         
18 15.10.17 310 (СЗ) 20000 м  {ливн. осадки}  8/8 1000 м 
[Sc]
+4 +2.7 91 +5  1013.7  2.2  754  299    +7.3  0.0     
21 15.10.17 300 (СЗ) 20000 м    10/10 870 м 
[Sc]
+4.2 +2.7 90 +4  1014.9  1.2  755  299           
00 16.10.17 290 (З) 20000 м    4/4 600 м 
[Sc]
+2.8 +1.4 90 +4  1016.1  1.2  756  301           
03 16.10.17 220 (ЮЗ) 4000 м  дымка  ясно 
-0.9 -1.2 98 1017.3  757  306  -1.2    0.0     
06 16.10.17 120 (ЮВ) 20000 м    9/8 900 м средняя 
[Sc|Ac und]
+1 +0.7 98 +2  1016.4  -0.8  756  304  -1.6         
09 16.10.17 160 (Ю) 4000 м  слаб. дождь  10/10 180 м 
[Frnb|Ns]
+4.8 +4.1 95 +6  1015.4  -0.9  756  299           
12 16.10.17 190 (Ю) 20000 м  {дождь}  10/10 270 м 
[St]
+7.2 +6.3 94 +8  1012.8  -2.5  754  295           
15 16.10.17 200 (Ю) 20000 м  в посл. час дождь  10/10 330 м 
[St]
+8.1 +6.9 92 +8  1009.8  -2.9  752  293      0.5     
18 16.10.17 220 (ЮЗ) 20000 м  в посл. час дождь  10/10 300 м 
[St]
+9.5 +8.8 95 +9  1007.6  -2.1  750  290    +9.5  0.8     
21 16.10.17 260 (З) 20000 м  {ливн. осадки}  10/10 450 м кучево-дожд. 
[Cb calv]
+11.7 +10.5 92 +13  1007  -0.5  750  288           
00 17.10.17 280 (З) 20000 м  {ливн. осадки}  9/9 840 м кучево-дожд. 
[Cb calv]
+11.1 +9.5 90 +12  1008.5  1.4  751  289           
03 17.10.17 290 (З) 20000 м    4/4 600 м кучево-дожд. 
[Cb calv]
+7.3 +5 85 +7  1011  2.4  752  295  +7.3    0.6     
06 17.10.17 260 (З) 20000 м    9/4 600 м кучево-дожд., средняя 
[Cb calv|Ac und]
+6.5 +4.7 88 +6  1013.1  754  296  +5.8         
09 17.10.17 260 (З) 20000 м    10/0 средняя 
[As trans]
+8.5 +3.9 73 +8  1014.3  1.2  755  294           
12 17.10.17 260 (З) 20000 м    10/0 средняя 
[As trans]
+9 +3.8 70 +8  1014.3  0.1  755  294           
15 17.10.17 230 (ЮЗ) 20000 м    10/10 1080 м 
[Sc]
+8.2 +4.6 78 +8  1012.8  -1.5  754  294           
Время (UTC), дата Ветер
(°,м/с) 
Видим.   Явления Облачность Т
(°С)
Тd
(°С)
f(%) Тe
(°С)
Pmin
(гПа)
dP
(гПа)
Po
(мм)
O2
(г/м3)
Тmin Tmax R s Состояние
почвы

Для получения пояснительной информации подведите курсор к названию столбца.

ПОГОДА Крестцы - архив

Всё, что Вы хотите узнать о погоде Крестцы - удобно и подробно!

Выберите нужную дату (начиная с 1 января 2015* года) и нажмите кнопку "Найти".
Будут отображены архивные сводки погоды по пункту Крестцы, начиная с указанной даты.


Отображать данные в формате CSV (для использования в таблицах Excel)


Внимание! Наш архив погоды предназначен исключительно для личного некоммерческого использования в познавательных целях. Если Вам необходимы официальные справки о состоянии погоды (для производственных, юридических, коммерческих и т.п. целей), обращайтесь в органы Росгидромета.

*Примечание: данная дата относится к архиву по метеостанциям СССР (Россия, СНГ, Балтия).
Архив по метеостанциям Зарубежной Европы и Азии (кроме Китая) хранится 10 дней, по другим регионам земного шара (Китай, Африка, Америка, Австралия, Океания) - 1 день.

Крестцы - район местоположения метеостанции


Название, широта, долгота, высота метеостанции:
Крестцы 58.3°ш. 32.5°д. 63 м над ур. моря [Российская Федерация]

Дополнительная информация

В oтличие oт бoльшинства пoгoдных сайтoв мы публикуем пoдрoбную метеoинфoрмацию в детальнoм прoфессиoнальнoм фoрмате.

Характеристики температуры и влажнoсти вoздуха измеряются на высoте 2 м в тени вдали oт зданий и деревьев.
Скoрoсть ветра измеряется на высoте 10 м (на урoвне рoста челoвека скoрoсть ветра ниже в 1.5-2 раза). Если метеoстанция нахoдится в гoрoде или в лесу, тo скoрoсть ветра занижена на 2-4 м/с пo сравнению с oткрытым местoм. Скoрoсть ветра над акватoриями крупных рек и oзёр, а также на вершинах хoлмoв на 2-5 м/с выше, чем в oбычных услoвиях.
Атмoсфернoе давление в разных тoчках местнoсти мoжет значительнo oтличаться oт давления на метеoстанции, в зависимoсти oт услoвий рельефа (при пoдъёме на 10 м давление пoнижается примернo на 1 мм рт.ст.).